Time,TemperatureF,DewpointF,PressureIn,WindDirection,WindDirectionDegrees,WindSpeedMPH,WindSpeedGustMPH,Humidity,HourlyPrecipIn,Conditions,Clouds,dailyrainin,SoftwareType,DateUTC
2013-01-06 00:01:00,38.2,34.6,29.71,East,90,0.0,1.1,87,0.00,,,0.00,WUHU216HW,2013-01-06 06:01:00,
2013-01-06 00:06:00,38.2,34.6,29.71,East,90,0.9,0.9,87,0.00,,,0.00,WUHU216HW,2013-01-06 06:06:00,
2013-01-06 00:11:00,38.2,34.6,29.71,East,90,0.9,1.1,87,0.00,,,0.00,WUHU216HW,2013-01-06 06:11:00,
2013-01-06 00:16:00,38.0,34.4,29.70,North,0,0.0,1.1,87,0.00,,,0.00,WUHU216HW,2013-01-06 06:16:00,
2013-01-06 00:21:00,38.0,34.4,29.70,NNE,23,0.0,0.4,87,0.00,,,0.00,WUHU216HW,2013-01-06 06:21:00,
2013-01-06 00:26:00,37.8,34.2,29.71,NE,45,0.7,1.1,87,0.00,,,0.00,WUHU216HW,2013-01-06 06:26:00,
2013-01-06 00:31:00,37.8,34.2,29.71,SE,135,0.7,1.1,87,0.00,,,0.00,WUHU216HW,2013-01-06 06:31:00,
2013-01-06 00:37:00,37.6,34.0,29.71,NE,45,1.1,1.1,87,0.00,,,0.00,WUHU216HW,2013-01-06 06:37:00,
2013-01-06 00:42:00,37.4,34.2,29.70,ENE,68,1.3,1.3,88,0.00,,,0.00,WUHU216HW,2013-01-06 06:42:00,
2013-01-06 00:47:00,37.3,33.7,29.71,ESE,113,0.7,1.8,87,0.00,,,0.00,WUHU216HW,2013-01-06 06:47:00,
2013-01-06 00:52:00,37.1,33.5,29.70,ESE,113,1.1,1.8,87,0.00,,,0.00,WUHU216HW,2013-01-06 06:52:00,
2013-01-06 00:57:00,37.1,33.5,29.70,ENE,68,0.9,1.6,87,0.00,,,0.00,WUHU216HW,2013-01-06 06:57:00,
2013-01-06 01:02:00,36.9,33.3,29.70,ESE,113,0.4,1.1,87,0.00,,,0.00,WUHU216HW,2013-01-06 07:02:00,
2013-01-06 01:07:00,36.7,33.1,29.70,ESE,113,0.4,1.8,87,0.00,,,0.00,WUHU216HW,2013-01-06 07:07:00,
2013-01-06 01:12:00,36.7,33.1,29.70,ESE,113,0.7,1.8,87,0.00,,,0.00,WUHU216HW,2013-01-06 07:12:00,
2013-01-06 01:17:00,36.5,33.3,29.70,ESE,113,1.1,1.1,88,0.00,,,0.00,WUHU216HW,2013-01-06 07:17:00,
2013-01-06 01:22:00,36.4,33.1,29.70,ESE,113,0.9,1.1,88,0.00,,,0.00,WUHU216HW,2013-01-06 07:22:00,
2013-01-06 01:27:00,36.2,33.0,29.70,East,90,0.9,1.1,88,0.00,,,0.00,WUHU216HW,2013-01-06 07:27:00,
2013-01-06 01:32:00,36.0,32.8,29.70,East,90,1.1,1.1,88,0.00,,,0.00,WUHU216HW,2013-01-06 07:32:00,
2013-01-06 01:37:00,36.2,33.0,29.70,SE,135,1.1,1.1,88,0.00,,,0.00,WUHU216HW,2013-01-06 07:37:00,
2013-01-06 01:42:00,36.2,33.0,29.70,East,90,0.4,1.1,88,0.00,,,0.00,WUHU216HW,2013-01-06 07:42:00,
2013-01-06 01:47:00,36.2,33.0,29.70,East,90,0.4,1.1,88,0.00,,,0.00,WUHU216HW,2013-01-06 07:47:00,
2013-01-06 01:52:00,36.0,32.8,29.70,NE,45,1.1,1.1,88,0.00,,,0.00,WUHU216HW,2013-01-06 07:52:00,
2013-01-06 01:57:00,35.8,32.6,29.70,ESE,113,0.7,1.1,88,0.00,,,0.00,WUHU216HW,2013-01-06 07:57:00,
2013-01-06 02:02:00,35.6,32.4,29.70,ESE,113,0.7,1.1,88,0.00,,,0.00,WUHU216HW,2013-01-06 08:02:00,
2013-01-06 02:07:00,35.6,32.4,29.70,ESE,113,1.1,1.1,88,0.00,,,0.00,WUHU216HW,2013-01-06 08:07:00,
2013-01-06 02:12:00,35.5,32.2,29.70,ESE,113,0.4,1.1,88,0.00,,,0.00,WUHU216HW,2013-01-06 08:12:00,
2013-01-06 02:17:00,35.5,32.5,29.70,ENE,68,0.7,1.1,89,0.00,,,0.00,WUHU216HW,2013-01-06 08:17:00,
2013-01-06 02:22:00,35.5,32.2,29.70,ESE,113,0.4,1.1,88,0.00,,,0.00,WUHU216HW,2013-01-06 08:22:00,
2013-01-06 02:27:00,35.6,32.4,29.70,ENE,68,0.7,1.1,88,0.00,,,0.00,WUHU216HW,2013-01-06 08:27:00,
2013-01-06 02:32:00,35.5,32.2,29.70,East,90,0.4,1.1,88,0.00,,,0.00,WUHU216HW,2013-01-06 08:32:00,
2013-01-06 02:37:00,35.6,32.4,29.70,NE,45,1.1,1.1,88,0.00,,,0.00,WUHU216HW,2013-01-06 08:37:00,
2013-01-06 02:42:00,35.6,32.4,29.70,ENE,68,1.1,1.3,88,0.00,,,0.00,WUHU216HW,2013-01-06 08:42:00,
2013-01-06 02:48:00,35.6,32.4,29.70,ENE,68,0.9,1.3,88,0.00,,,0.00,WUHU216HW,2013-01-06 08:48:00,
2013-01-06 02:53:00,35.6,32.7,29.70,ENE,68,0.2,1.3,89,0.00,,,0.00,WUHU216HW,2013-01-06 08:53:00,
2013-01-06 02:58:00,35.5,32.5,29.70,NE,45,0.4,1.1,89,0.00,,,0.00,WUHU216HW,2013-01-06 08:58:00,
2013-01-06 03:03:00,35.5,32.5,29.70,ENE,68,0.2,0.4,89,0.00,,,0.00,WUHU216HW,2013-01-06 09:03:00,
2013-01-06 03:08:00,35.6,32.7,29.70,ENE,68,0.4,1.3,89,0.00,,,0.00,WUHU216HW,2013-01-06 09:08:00,
2013-01-06 03:13:00,35.6,32.7,29.70,NE,45,0.2,1.3,89,0.00,,,0.00,WUHU216HW,2013-01-06 09:13:00,
2013-01-06 03:18:00,35.6,32.7,29.70,NNE,23,0.4,0.9,89,0.00,,,0.00,WUHU216HW,2013-01-06 09:18:00,
2013-01-06 03:23:00,35.6,32.7,29.70,NNE,23,0.0,0.7,89,0.00,,,0.00,WUHU216HW,2013-01-06 09:23:00,
2013-01-06 03:28:00,35.6,32.7,29.70,NNE,23,0.0,0.7,89,0.00,,,0.00,WUHU216HW,2013-01-06 09:28:00,
2013-01-06 03:33:00,35.6,32.7,29.70,NE,45,0.2,0.4,89,0.00,,,0.00,WUHU216HW,2013-01-06 09:33:00,
2013-01-06 03:38:00,35.6,32.7,29.70,North,0,0.0,0.4,89,0.00,,,0.00,WUHU216HW,2013-01-06 09:38:00,
2013-01-06 03:43:00,35.6,32.7,29.70,North,0,0.4,0.4,89,0.00,,,0.00,WUHU216HW,2013-01-06 09:43:00,
2013-01-06 03:48:00,35.6,32.7,29.70,NNE,23,0.0,0.4,89,0.00,,,0.00,WUHU216HW,2013-01-06 09:48:00,
2013-01-06 03:53:00,35.6,32.7,29.70,NE,45,0.0,0.7,89,0.00,,,0.00,WUHU216HW,2013-01-06 09:53:00,
2013-01-06 03:58:00,35.6,32.7,29.70,NE,45,0.2,0.7,89,0.00,,,0.00,WUHU216HW,2013-01-06 09:58:00,
2013-01-06 04:03:00,35.6,32.7,29.70,ENE,68,0.4,0.7,89,0.00,,,0.00,WUHU216HW,2013-01-06 10:03:00,
2013-01-06 04:08:00,35.6,32.7,29.69,NE,45,0.2,2.0,89,0.00,,,0.00,WUHU216HW,2013-01-06 10:08:00,
2013-01-06 04:13:00,35.8,32.9,29.69,NE,45,0.0,2.0,89,0.00,,,0.00,WUHU216HW,2013-01-06 10:13:00,
2013-01-06 04:18:00,35.8,33.1,29.69,NNE,23,0.4,0.7,90,0.00,,,0.00,WUHU216HW,2013-01-06 10:18:00,
2013-01-06 04:23:00,35.8,33.1,29.70,NE,45,0.2,0.4,90,0.00,,,0.00,WUHU216HW,2013-01-06 10:23:00,
2013-01-06 04:28:00,35.8,33.1,29.70,East,90,0.4,1.1,90,0.00,,,0.00,WUHU216HW,2013-01-06 10:28:00,
2013-01-06 04:33:00,35.8,32.9,29.70,ESE,113,0.7,1.6,89,0.00,,,0.00,WUHU216HW,2013-01-06 10:33:00,
2013-01-06 04:38:00,35.6,32.7,29.70,ENE,68,0.2,1.6,89,0.00,,,0.00,WUHU216HW,2013-01-06 10:38:00,
2013-01-06 04:43:00,35.6,32.9,29.70,ENE,68,0.0,0.9,90,0.00,,,0.00,WUHU216HW,2013-01-06 10:43:00,
2013-01-06 04:48:00,35.8,33.1,29.70,ENE,68,0.4,1.1,90,0.00,,,0.00,WUHU216HW,2013-01-06 10:48:00,
2013-01-06 04:53:00,35.8,33.1,29.70,NE,45,0.2,1.1,90,0.00,,,0.00,WUHU216HW,2013-01-06 10:53:00,
2013-01-06 04:58:00,36.0,33.3,29.70,NNE,23,0.2,1.1,90,0.00,,,0.00,WUHU216HW,2013-01-06 10:58:00,
2013-01-06 05:03:00,35.8,33.1,29.70,NNE,23,0.0,0.7,90,0.00,,,0.00,WUHU216HW,2013-01-06 11:03:00,
2013-01-06 05:08:00,35.8,33.1,29.70,ENE,68,0.0,0.7,90,0.00,,,0.00,WUHU216HW,2013-01-06 11:08:00,
2013-01-06 05:13:00,35.8,33.1,29.70,NNE,23,0.7,0.7,90,0.00,,,0.00,WUHU216HW,2013-01-06 11:13:00,
2013-01-06 05:18:00,35.8,33.1,29.69,NNE,23,0.4,0.9,90,0.00,,,0.00,WUHU216HW,2013-01-06 11:18:00,
2013-01-06 05:23:00,36.0,33.6,29.70,NNE,23,0.9,1.1,91,0.00,,,0.00,WUHU216HW,2013-01-06 11:23:00,
2013-01-06 05:28:00,36.0,33.6,29.70,NE,45,1.6,1.6,91,0.00,,,0.00,WUHU216HW,2013-01-06 11:28:00,
2013-01-06 05:33:00,36.0,33.6,29.69,NNE,23,1.1,1.6,91,0.00,,,0.00,WUHU216HW,2013-01-06 11:33:00,
2013-01-06 05:38:00,36.0,33.6,29.70,NNE,23,0.4,1.6,91,0.00,,,0.00,WUHU216HW,2013-01-06 11:38:00,
2013-01-06 05:43:00,36.0,33.6,29.70,NNE,23,0.9,1.1,91,0.00,,,0.00,WUHU216HW,2013-01-06 11:43:00,
2013-01-06 05:48:00,36.0,33.6,29.70,NE,45,0.7,1.3,91,0.00,,,0.00,WUHU216HW,2013-01-06 11:48:00,
2013-01-06 05:53:00,36.0,33.6,29.70,NE,45,0.4,1.3,91,0.00,,,0.00,WUHU216HW,2013-01-06 11:53:00,
2013-01-06 05:58:00,36.0,33.3,29.70,ENE,68,1.1,1.1,90,0.00,,,0.00,WUHU216HW,2013-01-06 11:58:00,
2013-01-06 06:04:00,35.8,33.1,29.70,East,90,0.4,1.1,90,0.00,,,0.00,WUHU216HW,2013-01-06 12:04:00,
2013-01-06 06:09:00,35.8,33.1,29.70,NNE,23,0.4,1.1,90,0.00,,,0.00,WUHU216HW,2013-01-06 12:09:00,
2013-01-06 06:14:00,35.6,32.9,29.70,NNE,23,0.7,1.1,90,0.00,,,0.00,WUHU216HW,2013-01-06 12:14:00,
2013-01-06 06:19:00,35.6,32.9,29.71,NNE,23,0.0,0.9,90,0.00,,,0.00,WUHU216HW,2013-01-06 12:19:00,
2013-01-06 06:24:00,35.6,32.9,29.71,ENE,68,0.2,0.4,90,0.00,,,0.00,WUHU216HW,2013-01-06 12:24:00,
2013-01-06 06:29:00,35.5,32.8,29.71,NE,45,0.0,0.4,90,0.00,,,0.00,WUHU216HW,2013-01-06 12:29:00,
2013-01-06 06:34:00,35.5,32.8,29.71,North,0,0.0,0.7,90,0.00,,,0.00,WUHU216HW,2013-01-06 12:34:00,
2013-01-06 06:39:00,35.5,32.8,29.71,North,0,0.2,1.6,90,0.00,,,0.00,WUHU216HW,2013-01-06 12:39:00,
2013-01-06 06:44:00,35.6,32.9,29.72,North,0,1.3,1.6,90,0.00,,,0.00,WUHU216HW,2013-01-06 12:44:00,
2013-01-06 06:49:00,35.8,33.1,29.72,North,0,0.4,1.3,90,0.00,,,0.00,WUHU216HW,2013-01-06 12:49:00,
2013-01-06 06:54:00,36.0,33.6,29.72,NNE,23,0.7,0.9,91,0.00,,,0.00,WUHU216HW,2013-01-06 12:54:00,
2013-01-06 06:59:00,36.4,33.7,29.72,NNE,23,1.1,1.6,90,0.00,,,0.00,WUHU216HW,2013-01-06 12:59:00,
2013-01-06 07:04:00,36.4,33.7,29.72,North,0,1.3,1.6,90,0.00,,,0.00,WUHU216HW,2013-01-06 13:04:00,
2013-01-06 07:09:00,36.4,33.4,29.72,NNE,23,0.7,1.3,89,0.00,,,0.00,WUHU216HW,2013-01-06 13:09:00,
2013-01-06 07:14:00,36.2,33.2,29.73,NNE,23,0.9,1.6,89,0.00,,,0.00,WUHU216HW,2013-01-06 13:14:00,
2013-01-06 07:19:00,36.4,33.4,29.73,North,0,1.8,1.8,89,0.00,,,0.00,WUHU216HW,2013-01-06 13:19:00,
2013-01-06 07:24:00,36.4,33.4,29.73,North,0,1.1,1.8,89,0.00,,,0.00,WUHU216HW,2013-01-06 13:24:00,
2013-01-06 07:29:00,36.5,33.6,29.73,NNE,23,1.8,1.8,89,0.00,,,0.00,WUHU216HW,2013-01-06 13:29:00,
2013-01-06 07:34:00,36.4,33.1,29.73,NNE,23,2.2,2.2,88,0.00,,,0.00,WUHU216HW,2013-01-06 13:34:00,
2013-01-06 07:39:00,36.4,33.1,29.74,NNE,23,1.6,2.2,88,0.00,,,0.00,WUHU216HW,2013-01-06 13:39:00,
2013-01-06 07:44:00,36.4,33.1,29.74,North,0,1.8,1.8,88,0.00,,,0.00,WUHU216HW,2013-01-06 13:44:00,
2013-01-06 07:49:00,36.4,33.1,29.74,North,0,2.2,2.2,88,0.00,,,0.00,WUHU216HW,2013-01-06 13:49:00,
2013-01-06 07:54:00,36.5,33.3,29.75,North,0,1.8,2.2,88,0.00,,,0.00,WUHU216HW,2013-01-06 13:54:00,
2013-01-06 07:59:00,36.7,33.5,29.75,North,0,1.3,2.2,88,0.00,,,0.00,WUHU216HW,2013-01-06 13:59:00,
2013-01-06 08:04:00,36.7,33.5,29.75,North,0,1.8,2.5,88,0.00,,,0.00,WUHU216HW,2013-01-06 14:04:00,
2013-01-06 08:09:00,37.1,33.5,29.75,NNE,23,1.8,2.5,87,0.00,,,0.00,WUHU216HW,2013-01-06 14:09:00,
2013-01-06 08:15:00,37.1,33.5,29.76,NNE,23,2.0,2.5,87,0.00,,,0.00,WUHU216HW,2013-01-06 14:15:00,
2013-01-06 08:20:00,37.3,33.7,29.76,NNE,23,2.0,2.0,87,0.00,,,0.00,WUHU216HW,2013-01-06 14:20:00,
2013-01-06 08:25:00,37.4,33.8,29.76,NNE,23,1.8,2.5,87,0.00,,,0.00,WUHU216HW,2013-01-06 14:25:00,
2013-01-06 08:30:00,37.6,34.4,29.76,NNE,23,1.8,2.5,88,0.00,,,0.00,WUHU216HW,2013-01-06 14:30:00,
2013-01-06 08:35:00,37.6,34.4,29.76,NNE,23,2.0,2.5,88,0.00,,,0.00,WUHU216HW,2013-01-06 14:35:00,
2013-01-06 08:40:00,37.8,34.6,29.76,North,0,1.1,2.5,88,0.00,,,0.00,WUHU216HW,2013-01-06 14:40:00,
2013-01-06 08:45:00,38.0,34.8,29.77,NE,45,0.4,1.8,88,0.00,,,0.00,WUHU216HW,2013-01-06 14:45:00,
2013-01-06 08:50:00,38.2,34.9,29.77,NNE,23,1.3,1.8,88,0.00,,,0.00,WUHU216HW,2013-01-06 14:50:00,
2013-01-06 08:55:00,38.7,35.5,29.77,North,0,1.3,1.3,88,0.00,,,0.00,WUHU216HW,2013-01-06 14:55:00,
2013-01-06 09:00:00,39.6,36.0,29.77,NNE,23,1.6,2.5,87,0.00,,,0.00,WUHU216HW,2013-01-06 15:00:00,
2013-01-06 09:05:00,40.5,35.4,29.77,NNE,23,3.4,4.7,82,0.00,,,0.00,WUHU216HW,2013-01-06 15:05:00,
2013-01-06 09:10:00,41.8,35.4,29.78,North,0,2.2,5.1,78,0.00,,,0.00,WUHU216HW,2013-01-06 15:10:00,
2013-01-06 09:15:00,42.7,34.9,29.77,ENE,68,2.5,5.1,74,0.00,,,0.00,WUHU216HW,2013-01-06 15:15:00,
2013-01-06 09:20:00,43.2,34.5,29.78,North,0,3.6,6.3,71,0.00,,,0.00,WUHU216HW,2013-01-06 15:20:00,
2013-01-06 09:25:00,43.6,34.5,29.78,North,0,5.8,6.5,70,0.00,,,0.00,WUHU216HW,2013-01-06 15:25:00,
2013-01-06 09:30:00,44.1,34.2,29.78,NNE,23,4.5,6.5,68,0.00,,,0.00,WUHU216HW,2013-01-06 15:30:00,
2013-01-06 09:35:00,44.3,32.9,29.78,NNW,338,6.3,6.3,64,0.00,,,0.00,WUHU216HW,2013-01-06 15:35:00,
2013-01-06 09:40:00,44.6,33.6,29.78,NE,45,3.4,6.3,65,0.00,,,0.00,WUHU216HW,2013-01-06 15:40:00,
2013-01-06 09:45:00,45.2,33.3,29.78,NNE,23,5.4,6.9,63,0.00,,,0.00,WUHU216HW,2013-01-06 15:45:00,
2013-01-06 09:50:00,45.5,33.7,29.78,ENE,68,4.5,6.9,63,0.00,,,0.00,WUHU216HW,2013-01-06 15:50:00,
2013-01-06 09:55:00,45.7,33.4,29.79,NE,45,4.9,6.9,62,0.00,,,0.00,WUHU216HW,2013-01-06 15:55:00,
2013-01-06 10:00:00,46.1,33.4,29.79,North,0,5.4,6.9,61,0.00,,,0.00,WUHU216HW,2013-01-06 16:00:00,
2013-01-06 10:05:00,46.4,32.9,29.79,NE,45,6.0,6.5,59,0.00,,,0.00,WUHU216HW,2013-01-06 16:05:00,
2013-01-06 10:10:00,46.8,33.7,29.79,NE,45,4.0,6.5,60,0.00,,,0.00,WUHU216HW,2013-01-06 16:10:00,
2013-01-06 10:16:00,47.3,34.2,29.79,NNE,23,3.4,5.8,60,0.00,,,0.00,WUHU216HW,2013-01-06 16:16:00,
2013-01-06 10:21:00,47.7,34.1,29.79,NNE,23,4.7,5.8,59,0.00,,,0.00,WUHU216HW,2013-01-06 16:21:00,
2013-01-06 10:26:00,48.2,33.2,29.79,NNE,23,5.4,6.0,56,0.00,,,0.00,WUHU216HW,2013-01-06 16:26:00,
2013-01-06 10:31:00,48.6,32.7,29.78,North,0,4.3,6.0,54,0.00,,,0.00,WUHU216HW,2013-01-06 16:31:00,
2013-01-06 10:36:00,48.8,32.9,29.78,North,0,5.4,5.4,54,0.00,,,0.00,WUHU216HW,2013-01-06 16:36:00,
2013-01-06 10:41:00,49.3,33.8,29.78,NNE,23,4.5,5.4,55,0.00,,,0.00,WUHU216HW,2013-01-06 16:41:00,
2013-01-06 10:46:00,49.5,33.5,29.78,North,0,5.6,5.6,54,0.00,,,0.00,WUHU216HW,2013-01-06 16:46:00,
2013-01-06 10:51:00,49.9,32.9,29.78,North,0,3.6,6.3,52,0.00,,,0.00,WUHU216HW,2013-01-06 16:51:00,
2013-01-06 10:56:00,50.0,32.7,29.78,North,0,3.6,7.2,51,0.00,,,0.00,WUHU216HW,2013-01-06 16:56:00,
2013-01-06 11:01:00,50.6,33.1,29.78,North,0,3.6,7.2,51,0.00,,,0.00,WUHU216HW,2013-01-06 17:01:00,
2013-01-06 11:06:00,50.8,32.3,29.78,NE,45,5.4,6.7,49,0.00,,,0.00,WUHU216HW,2013-01-06 17:06:00,
2013-01-06 11:11:00,51.1,33.2,29.78,NNE,23,3.8,6.9,50,0.00,,,0.00,WUHU216HW,2013-01-06 17:11:00,
2013-01-06 11:16:00,51.5,32.9,29.78,North,0,2.2,6.9,49,0.00,,,0.00,WUHU216HW,2013-01-06 17:16:00,
2013-01-06 11:21:00,51.5,32.9,29.78,North,0,2.2,6.7,49,0.00,,,0.00,WUHU216HW,2013-01-06 17:21:00,
2013-01-06 12:00:00,54.0,30.3,29.76,NNE,23,5.6,5.6,40,0.00,,,0.00,WUHU216HW,2013-01-06 18:00:00,
2013-01-06 12:05:00,54.0,30.3,29.76,NNE,23,5.6,5.6,40,0.00,,,0.00,WUHU216HW,2013-01-06 18:05:00,
2013-01-06 13:00:00,55.8,29.7,29.72,NE,45,2.9,2.9,37,0.00,,,0.00,WUHU216HW,2013-01-06 19:00:00,
2013-01-06 13:05:00,55.8,29.7,29.72,NE,45,2.9,2.9,37,0.00,,,0.00,WUHU216HW,2013-01-06 19:05:00,
2013-01-06 14:00:00,57.2,31.7,29.69,North,0,2.2,2.2,38,0.00,,,0.00,WUHU216HW,2013-01-06 20:00:00,
2013-01-06 14:05:00,57.2,31.1,29.69,NNE,23,5.4,6.0,37,0.00,,,0.00,WUHU216HW,2013-01-06 20:05:00,
2013-01-06 14:10:00,57.4,31.1,29.69,NNW,338,2.0,6.0,37,0.00,,,0.00,WUHU216HW,2013-01-06 20:10:00,
2013-01-06 14:11:00,57.6,31.3,29.69,North,0,2.7,6.0,37,0.00,,,0.00,WUHU216HW,2013-01-06 20:11:00,
2013-01-06 14:13:00,57.4,31.1,29.69,North,0,3.6,6.0,37,0.00,,,0.00,WUHU216HW,2013-01-06 20:13:00,
2013-01-06 14:18:00,57.8,32.2,29.69,NNE,23,4.9,4.9,38,0.00,,,0.00,WUHU216HW,2013-01-06 20:18:00,
2013-01-06 14:23:00,57.8,30.8,29.69,NNE,23,3.4,6.5,36,0.00,,,0.00,WUHU216HW,2013-01-06 20:23:00,
2013-01-06 14:28:00,57.8,30.8,29.68,North,0,5.6,6.5,36,0.00,,,0.00,WUHU216HW,2013-01-06 20:28:00,
2013-01-06 14:33:00,58.0,31.7,29.68,North,0,3.6,5.6,37,0.00,,,0.00,WUHU216HW,2013-01-06 20:33:00,
2013-01-06 14:38:00,58.0,31.7,29.68,North,0,1.1,4.7,37,0.00,,,0.00,WUHU216HW,2013-01-06 20:38:00,
2013-01-06 14:43:00,58.1,32.5,29.68,NNE,23,4.7,4.7,38,0.00,,,0.00,WUHU216HW,2013-01-06 20:43:00,
2013-01-06 14:49:00,58.0,31.7,29.68,NNE,23,1.8,4.7,37,0.00,,,0.00,WUHU216HW,2013-01-06 20:49:00,
2013-01-06 14:54:00,58.0,31.7,29.68,NNE,23,4.5,5.4,37,0.00,,,0.00,WUHU216HW,2013-01-06 20:54:00,
2013-01-06 14:59:00,58.0,32.4,29.68,ENE,68,4.0,5.4,38,0.00,,,0.00,WUHU216HW,2013-01-06 20:59:00,
2013-01-06 15:00:00,58.0,31.7,29.68,NNE,23,3.1,5.4,37,0.00,,,0.00,WUHU216HW,2013-01-06 21:00:00,
2013-01-06 15:05:00,58.0,31.7,29.68,NNW,338,3.4,4.5,37,0.00,,,0.00,WUHU216HW,2013-01-06 21:05:00,
2013-01-06 15:10:00,58.1,31.9,29.68,NNE,23,4.5,4.7,37,0.00,,,0.00,WUHU216HW,2013-01-06 21:10:00,
2013-01-06 15:15:00,58.0,31.7,29.68,North,0,3.4,4.7,37,0.00,,,0.00,WUHU216HW,2013-01-06 21:15:00,
2013-01-06 15:21:00,58.0,31.7,29.68,North,0,5.4,5.8,37,0.00,,,0.00,WUHU216HW,2013-01-06 21:21:00,
2013-01-06 15:26:00,58.0,31.7,29.68,NNE,23,3.6,5.8,37,0.00,,,0.00,WUHU216HW,2013-01-06 21:26:00,
2013-01-06 15:31:00,58.1,32.5,29.68,WSW,248,1.6,4.7,38,0.00,,,0.00,WUHU216HW,2013-01-06 21:31:00,
2013-01-06 15:36:00,58.1,33.2,29.68,NW,315,3.6,4.7,39,0.00,,,0.00,WUHU216HW,2013-01-06 21:36:00,
2013-01-06 15:41:00,58.1,31.9,29.68,North,0,2.2,4.7,37,0.00,,,0.00,WUHU216HW,2013-01-06 21:41:00,
2013-01-06 15:46:00,58.3,32.7,29.68,North,0,3.8,4.0,38,0.00,,,0.00,WUHU216HW,2013-01-06 21:46:00,
2013-01-06 15:51:00,58.1,32.5,29.68,NNE,23,5.4,5.4,38,0.00,,,0.00,WUHU216HW,2013-01-06 21:51:00,
2013-01-06 15:56:00,58.1,33.2,29.68,NE,45,4.7,5.4,39,0.00,,,0.00,WUHU216HW,2013-01-06 21:56:00,
2013-01-06 16:01:00,58.1,32.5,29.68,NNE,23,5.1,5.1,38,0.00,,,0.00,WUHU216HW,2013-01-06 22:01:00,
2013-01-06 16:06:00,58.0,32.4,29.68,WSW,248,3.8,5.1,38,0.00,,,0.00,WUHU216HW,2013-01-06 22:06:00,
2013-01-06 16:11:00,58.0,32.4,29.69,ENE,68,4.7,4.7,38,0.00,,,0.00,WUHU216HW,2013-01-06 22:11:00,
2013-01-06 16:17:00,57.8,32.2,29.69,NE,45,1.8,4.7,38,0.00,,,0.00,WUHU216HW,2013-01-06 22:17:00,
2013-01-06 16:22:00,57.8,32.2,29.69,NNE,23,3.1,3.8,38,0.00,,,0.00,WUHU216HW,2013-01-06 22:22:00,
2013-01-06 16:27:00,57.6,32.8,29.69,NNE,23,1.6,3.8,39,0.00,,,0.00,WUHU216HW,2013-01-06 22:27:00,
2013-01-06 16:32:00,57.6,32.0,29.69,North,0,2.7,4.5,38,0.00,,,0.00,WUHU216HW,2013-01-06 22:32:00,
2013-01-06 16:37:00,57.2,31.7,29.69,NNE,23,1.8,4.5,38,0.00,,,0.00,WUHU216HW,2013-01-06 22:37:00,
2013-01-06 16:42:00,57.2,32.4,29.69,North,0,3.1,3.4,39,0.00,,,0.00,WUHU216HW,2013-01-06 22:42:00,
2013-01-06 16:47:00,57.2,32.4,29.69,North,0,3.6,3.6,39,0.00,,,0.00,WUHU216HW,2013-01-06 22:47:00,
2013-01-06 16:52:00,57.1,32.9,29.70,West,270,1.3,4.0,40,0.00,,,0.00,WUHU216HW,2013-01-06 22:52:00,
2013-01-06 16:57:00,56.9,32.8,29.70,NNE,23,2.7,4.0,40,0.00,,,0.00,WUHU216HW,2013-01-06 22:57:00,
2013-01-06 17:02:00,56.7,32.7,29.69,NE,45,2.7,4.0,40,0.00,,,0.00,WUHU216HW,2013-01-06 23:02:00,
2013-01-06 17:07:00,56.5,33.0,29.70,NNE,23,1.8,4.0,41,0.00,,,0.00,WUHU216HW,2013-01-06 23:07:00,
2013-01-06 17:12:00,56.5,33.6,29.70,North,0,1.1,2.7,42,0.00,,,0.00,WUHU216HW,2013-01-06 23:12:00,
2013-01-06 17:17:00,56.5,33.6,29.70,NNE,23,0.9,2.9,42,0.00,,,0.00,WUHU216HW,2013-01-06 23:17:00,
2013-01-06 17:22:00,56.2,33.8,29.70,NNE,23,1.6,2.9,43,0.00,,,0.00,WUHU216HW,2013-01-06 23:22:00,
2013-01-06 17:27:00,55.8,33.5,29.70,North,0,1.1,2.7,43,0.00,,,0.00,WUHU216HW,2013-01-06 23:27:00,
2013-01-06 17:32:00,55.6,33.3,29.70,NNE,23,1.3,3.6,43,0.00,,,0.00,WUHU216HW,2013-01-06 23:32:00,
2013-01-06 17:37:00,55.3,33.6,29.70,NNE,23,1.8,3.6,44,0.00,,,0.00,WUHU216HW,2013-01-06 23:37:00,
2013-01-06 17:43:00,54.9,33.2,29.70,NE,45,1.1,1.8,44,0.00,,,0.00,WUHU216HW,2013-01-06 23:43:00,
2013-01-06 17:48:00,54.4,33.3,29.70,NE,45,0.4,1.8,45,0.00,,,0.00,WUHU216HW,2013-01-06 23:48:00,
2013-01-06 17:53:00,54.0,33.0,29.70,NNE,23,0.4,1.1,45,0.00,,,0.00,WUHU216HW,2013-01-06 23:53:00,
2013-01-06 17:58:00,53.6,32.7,29.70,NE,45,0.9,1.3,45,0.00,,,0.00,WUHU216HW,2013-01-06 23:58:00,
2013-01-06 18:03:00,53.3,33.0,29.70,NE,45,0.0,1.3,46,0.00,,,0.00,WUHU216HW,2013-01-07 00:03:00,
2013-01-06 18:08:00,52.7,32.4,29.70,NE,45,0.7,0.7,46,0.00,,,0.00,WUHU216HW,2013-01-07 00:08:00,
2013-01-06 18:13:00,52.2,32.0,29.71,ENE,68,0.0,0.7,46,0.00,,,0.00,WUHU216HW,2013-01-07 00:13:00,
2013-01-06 18:18:00,51.8,32.1,29.71,NE,45,0.0,0.0,47,0.00,,,0.00,WUHU216HW,2013-01-07 00:18:00,
2013-01-06 18:23:00,51.5,31.9,29.71,ENE,68,0.7,0.9,47,0.00,,,0.00,WUHU216HW,2013-01-07 00:23:00,
2013-01-06 18:28:00,51.1,32.0,29.71,ENE,68,0.4,0.9,48,0.00,,,0.00,WUHU216HW,2013-01-07 00:28:00,
2013-01-06 18:33:00,50.8,31.8,29.71,ENE,68,0.4,0.9,48,0.00,,,0.00,WUHU216HW,2013-01-07 00:33:00,
2013-01-06 18:38:00,50.6,32.1,29.71,NE,45,0.4,0.9,49,0.00,,,0.00,WUHU216HW,2013-01-07 00:38:00,
2013-01-06 18:43:00,50.2,31.9,29.71,ENE,68,1.8,1.8,49,0.00,,,0.00,WUHU216HW,2013-01-07 00:43:00,
2013-01-06 18:48:00,49.9,32.0,29.71,NNE,23,0.7,1.8,50,0.00,,,0.00,WUHU216HW,2013-01-07 00:48:00,
2013-01-06 18:53:00,49.5,32.1,29.71,NE,45,1.1,1.6,51,0.00,,,0.00,WUHU216HW,2013-01-07 00:53:00,
2013-01-06 18:58:00,49.1,31.8,29.71,NE,45,1.1,1.6,51,0.00,,,0.00,WUHU216HW,2013-01-07 00:58:00,
2013-01-06 19:03:00,48.8,31.9,29.72,NE,45,0.4,1.6,52,0.00,,,0.00,WUHU216HW,2013-01-07 01:03:00,
2013-01-06 19:09:00,48.4,31.5,29.72,NE,45,0.2,0.9,52,0.00,,,0.00,WUHU216HW,2013-01-07 01:09:00,
2013-01-06 19:14:00,48.2,31.9,29.72,ENE,68,1.1,1.1,53,0.00,,,0.00,WUHU216HW,2013-01-07 01:14:00,
2013-01-06 19:19:00,47.9,31.5,29.72,North,0,0.9,1.1,53,0.00,,,0.00,WUHU216HW,2013-01-07 01:19:00,
2013-01-06 19:24:00,47.5,31.6,29.72,NE,45,1.1,1.1,54,0.00,,,0.00,WUHU216HW,2013-01-07 01:24:00,
2013-01-06 19:29:00,47.2,31.3,29.72,ENE,68,0.9,2.5,54,0.00,,,0.00,WUHU216HW,2013-01-07 01:29:00,
2013-01-06 19:34:00,47.0,31.6,29.73,NE,45,0.7,2.5,55,0.00,,,0.00,WUHU216HW,2013-01-07 01:34:00,
2013-01-06 19:39:00,46.6,31.2,29.73,ENE,68,0.9,1.3,55,0.00,,,0.00,WUHU216HW,2013-01-07 01:39:00,
2013-01-06 19:44:00,46.4,31.1,29.73,NE,45,0.0,0.9,55,0.00,,,0.00,WUHU216HW,2013-01-07 01:44:00,
2013-01-06 19:49:00,46.1,31.1,29.73,NE,45,0.0,0.4,56,0.00,,,0.00,WUHU216HW,2013-01-07 01:49:00,
2013-01-06 19:55:00,45.7,30.9,29.73,NE,45,0.0,0.0,56,0.00,,,0.00,WUHU216HW,2013-01-07 01:55:00,
2013-01-06 20:00:00,45.5,31.1,29.74,NE,45,0.0,0.0,57,0.00,,,0.00,WUHU216HW,2013-01-07 02:00:00,
2013-01-06 20:05:00,45.4,31.0,29.74,NE,45,0.0,0.0,57,0.00,,,0.00,WUHU216HW,2013-01-07 02:05:00,
2013-01-06 20:10:00,45.0,30.7,29.74,NNE,23,0.0,0.0,57,0.00,,,0.00,WUHU216HW,2013-01-07 02:10:00,
2013-01-06 20:15:00,44.8,30.5,29.74,ENE,68,0.0,0.2,57,0.00,,,0.00,WUHU216HW,2013-01-07 02:15:00,
2013-01-06 20:20:00,44.6,30.8,29.74,ENE,68,0.0,0.2,58,0.00,,,0.00,WUHU216HW,2013-01-07 02:20:00,
2013-01-06 20:25:00,44.6,30.8,29.74,ENE,68,0.0,0.0,58,0.00,,,0.00,WUHU216HW,2013-01-07 02:25:00,
2013-01-06 20:30:00,44.3,30.9,29.74,ENE,68,0.2,0.4,59,0.00,,,0.00,WUHU216HW,2013-01-07 02:30:00,
2013-01-06 20:35:00,44.3,30.9,29.74,NE,45,0.0,0.4,59,0.00,,,0.00,WUHU216HW,2013-01-07 02:35:00,
2013-01-06 20:40:00,44.1,30.7,29.74,NE,45,0.4,0.4,59,0.00,,,0.00,WUHU216HW,2013-01-07 02:40:00,
2013-01-06 20:45:00,43.9,31.0,29.74,NNE,23,0.7,0.7,60,0.00,,,0.00,WUHU216HW,2013-01-07 02:45:00,
2013-01-06 20:51:00,43.7,30.8,29.74,NNE,23,0.7,0.7,60,0.00,,,0.00,WUHU216HW,2013-01-07 02:51:00,
2013-01-06 20:56:00,43.6,31.0,29.74,NNE,23,0.4,0.7,61,0.00,,,0.00,WUHU216HW,2013-01-07 02:56:00,
2013-01-06 21:01:00,43.4,30.8,29.73,NNE,23,0.7,1.1,61,0.00,,,0.00,WUHU216HW,2013-01-07 03:01:00,
2013-01-06 21:06:00,43.0,30.9,29.74,NE,45,1.1,1.8,62,0.00,,,0.00,WUHU216HW,2013-01-07 03:06:00,
2013-01-06 21:11:00,42.8,30.7,29.74,NNW,338,1.1,1.8,62,0.00,,,0.00,WUHU216HW,2013-01-07 03:11:00,
2013-01-06 21:16:00,42.7,30.9,29.74,NE,45,1.1,1.1,63,0.00,,,0.00,WUHU216HW,2013-01-07 03:16:00,
2013-01-06 21:21:00,42.5,30.7,29.74,NE,45,1.1,1.1,63,0.00,,,0.00,WUHU216HW,2013-01-07 03:21:00,
2013-01-06 21:26:00,42.3,30.6,29.74,NE,45,0.4,1.1,63,0.00,,,0.00,WUHU216HW,2013-01-07 03:26:00,
2013-01-06 21:31:00,42.1,30.4,29.74,NNE,23,1.1,1.1,63,0.00,,,0.00,WUHU216HW,2013-01-07 03:31:00,
2013-01-06 21:36:00,41.8,30.4,29.74,NE,45,0.4,1.1,64,0.00,,,0.00,WUHU216HW,2013-01-07 03:36:00,
2013-01-06 21:41:00,41.6,30.2,29.74,ENE,68,1.1,1.3,64,0.00,,,0.00,WUHU216HW,2013-01-07 03:41:00,
2013-01-06 21:47:00,41.6,30.7,29.74,NNE,23,1.1,1.6,65,0.00,,,0.00,WUHU216HW,2013-01-07 03:47:00,
2013-01-06 21:52:00,41.4,30.5,29.74,NE,45,1.8,1.8,65,0.00,,,0.00,WUHU216HW,2013-01-07 03:52:00,
2013-01-06 21:57:00,41.4,30.5,29.74,East,90,1.1,1.8,65,0.00,,,0.00,WUHU216HW,2013-01-07 03:57:00,
2013-01-06 22:02:00,41.0,30.5,29.73,NNE,23,1.8,2.0,66,0.00,,,0.00,WUHU216HW,2013-01-07 04:02:00,
2013-01-06 22:07:00,40.9,30.3,29.73,ENE,68,0.7,2.0,66,0.00,,,0.00,WUHU216HW,2013-01-07 04:07:00,
2013-01-06 22:12:00,40.7,30.5,29.73,ENE,68,1.1,1.8,67,0.00,,,0.00,WUHU216HW,2013-01-07 04:12:00,
2013-01-06 22:17:00,40.7,30.5,29.73,NE,45,0.7,1.1,67,0.00,,,0.00,WUHU216HW,2013-01-07 04:17:00,
2013-01-06 22:22:00,40.5,30.3,29.73,NNE,23,1.1,1.1,67,0.00,,,0.00,WUHU216HW,2013-01-07 04:22:00,
2013-01-06 22:27:00,40.3,30.2,29.73,NE,45,0.9,1.1,67,0.00,,,0.00,WUHU216HW,2013-01-07 04:27:00,
2013-01-06 22:32:00,40.1,30.0,29.73,NE,45,0.9,1.6,67,0.00,,,0.00,WUHU216HW,2013-01-07 04:32:00,
2013-01-06 22:37:00,40.1,30.0,29.73,NNE,23,1.1,1.6,67,0.00,,,0.00,WUHU216HW,2013-01-07 04:37:00,
2013-01-06 22:43:00,40.0,29.8,29.73,East,90,0.4,1.8,67,0.00,,,0.00,WUHU216HW,2013-01-07 04:43:00,
2013-01-06 22:48:00,40.0,30.3,29.73,ESE,113,0.4,1.8,68,0.00,,,0.00,WUHU216HW,2013-01-07 04:48:00,
2013-01-06 22:53:00,39.8,30.1,29.73,ENE,68,1.6,1.8,68,0.00,,,0.00,WUHU216HW,2013-01-07 04:53:00,
2013-01-06 22:58:00,39.6,29.9,29.73,East,90,0.7,1.6,68,0.00,,,0.00,WUHU216HW,2013-01-07 04:58:00,
2013-01-06 23:00:00,39.6,30.3,29.73,East,90,1.6,1.6,69,0.00,,,0.00,WUHU216HW,2013-01-07 05:00:00,
2013-01-06 23:01:00,39.4,29.7,29.73,ENE,68,0.9,1.6,68,0.00,,,0.00,WUHU216HW,2013-01-07 05:01:00,
2013-01-06 23:02:00,39.4,29.7,29.73,ENE,68,0.9,1.6,68,0.00,,,0.00,WUHU216HW,2013-01-07 05:02:00,
2013-01-06 23:03:00,39.4,29.7,29.73,NE,45,1.8,1.8,68,0.00,,,0.00,WUHU216HW,2013-01-07 05:03:00,
2013-01-06 23:08:00,39.4,30.1,29.73,NE,45,0.7,1.8,69,0.00,,,0.00,WUHU216HW,2013-01-07 05:08:00,
2013-01-06 23:13:00,39.2,29.9,29.73,ENE,68,0.9,1.8,69,0.00,,,0.00,WUHU216HW,2013-01-07 05:13:00,
2013-01-06 23:18:00,39.2,29.9,29.73,ENE,68,0.9,1.8,69,0.00,,,0.00,WUHU216HW,2013-01-07 05:18:00,
2013-01-06 23:23:00,39.2,29.9,29.73,East,90,1.1,1.8,69,0.00,,,0.00,WUHU216HW,2013-01-07 05:23:00,
2013-01-06 23:29:00,39.1,30.1,29.73,NE,45,0.4,1.8,70,0.00,,,0.00,WUHU216HW,2013-01-07 05:29:00,
2013-01-06 23:34:00,38.9,29.9,29.73,ENE,68,0.4,1.8,70,0.00,,,0.00,WUHU216HW,2013-01-07 05:34:00,
2013-01-06 23:39:00,38.7,29.8,29.73,East,90,0.2,1.3,70,0.00,,,0.00,WUHU216HW,2013-01-07 05:39:00,
2013-01-06 23:44:00,38.5,29.6,29.73,NE,45,1.3,1.3,70,0.00,,,0.00,WUHU216HW,2013-01-07 05:44:00,
2013-01-06 23:49:00,38.5,30.0,29.73,East,90,0.7,1.3,71,0.00,,,0.00,WUHU216HW,2013-01-07 05:49:00,
2013-01-06 23:54:00,38.5,30.0,29.73,NE,45,0.0,1.3,71,0.00,,,0.00,WUHU216HW,2013-01-07 05:54:00,
2013-01-06 23:59:00,38.3,29.8,29.73,ENE,68,0.4,1.1,71,0.00,,,0.00,WUHU216HW,2013-01-07 05:59:00,